Back to catalog

STARLINK-31314

AliveCommunicationsVLEO
NORAD 58967·PAYLOAD·🇺🇸 United States

Launched Feb 15, 2024 from Vandenberg Space Force Base

Loading…

Next Passes (next 24 hours)

TLE

FreshSource: CelesTrak SupGP

Epoch: Sep 14, 2026, 13:44 UTC

1 58967C 24031C   26257.57270833  .00054837  00000+0  16199-2 0  2573
2 58967  53.1573 137.5132 0001104 103.4011  53.1484 15.34368056    16

Track STARLINK-31314 in real time with AllMySat

Download on the App Store